Torna al catalogo

SL-8 R/B

AttivoPO
NORAD 9510·ROCKET BODY·🇷🇺 Russia

Lanciato Oct 29, 1976 da Plesetsk Cosmodrome

Loading…

Prossimi Passaggi (prossime 24 ore)

TLE

AggiornatoSource: Space-Track

Epoca: Sep 14, 2026, 08:01 UTC

1 09510U 76108B   26257.33441934  .00000029  00000-0  13608-4 0  9993
2 09510  82.9383  30.9403 0027398  85.0829 275.3456 13.77894620506336

Traccia SL-8 R/B in tempo reale con AllMySat

Download on the App Store